Overview Statistics Trail Chart Weather Telemetry Raw packets
 

This is the latest recevied weather packets stored in our database for station/object IR9AK-10. If no packets are shown the sender has not sent any weather packets the latest 10 day(s).

<< 9 10 11 12 13 14 15 >>
Time Temp. Humidity Pressure Rain* Wind** Luminosity Snow
1788456684 41.67° C 35% 1060 hPa - - - -
1788456084 41.67° C 36% 1060 hPa - - - -
1788455484 41.67° C 35% 1059.8 hPa - - - -
1788454885 41.67° C 35% 1059.8 hPa - - - -
1788454287 41.67° C 35% 1059.7 hPa - - - -
1788453688 42.22° C 35% 1059.8 hPa - - - -
1788453089 42.22° C 35% 1059.8 hPa - - - -
1788452491 42.22° C 34% 1059.9 hPa - - - -
1788451891 41.67° C 35% 1060 hPa - - - -
1788451292 42.22° C 35% 1059.9 hPa - - - -
1788450694 42.22° C 35% 1060 hPa - - - -
1788450095 42.22° C 35% 1060 hPa - - - -
1788449496 41.67° C 35% 1060 hPa - - - -
1788448897 42.22° C 35% 1059.9 hPa - - - -
1788448297 43.33° C 33% 1059.9 hPa - - - -
1788447697 45.56° C 30% 1059.7 hPa - - - -
1788447116 46.11° C 29% 1059.7 hPa - - - -
1788446500 47.22° C 28% 1059.6 hPa - - - -
1788445902 47.22° C 28% 1059.8 hPa - - - -
1788445302 42.22° C 34% 1060 hPa - - - -
1788444703 42.22° C 33% 1060.3 hPa - - - -
1788444104 42.78° C 33% 1060.2 hPa - - - -
1788443505 42.22° C 34% 1060 hPa - - - -
1788442906 42.22° C 33% 1060.1 hPa - - - -
1788442308 42.22° C 33% 1060.1 hPa - - - -

* Rain since midnight (hover to see other rain measurements)
** Current wind speed in m/s (hover to see current wind gust speed)